sat.trackr.live / text

‹ back to catalog

STARLINK-2081

NORAD 47366 · 2021-005T

PAYLOAD ACTIVE UNKNOWN

§ Identity

Operator
Country
US
Launch date
2021-01-20
Launch site
AFETR
Launch vehicle
Mass (kg)
RCS (m²)

Purposes: comms

External: N2YO · Heavens-Above · Gunter

§ Orbital elements

Epoch: 2026-09-19T15:38:20.922720Z

Period
94.01 min
Inclination
53.1600°
Eccentricity
0.0001297
Mean motion
15.31697228 rev/d
Perigee alt
469.9 km
Apogee alt
471.6 km
Semi-major
6,848.9 km
B*
1.1104e-5
RAAN
239.9267°
Arg perigee
88.2897°
Mean anomaly
271.8253°
Rev number
31,274

§ Raw data

STARLINK-20811 47366U 21005T   26262.65163105 -.00000021  00000+0  11104-4 0  99932 47366  53.1600 239.9267 0001297  88.2897 271.8253 15.31697228312741

JSON: /api/v1/satellites/47366 · /tle

For live sub-satellite position, see the globe view (requires WebGL).

§ Visibility from observer

Set your observer location to see the next 7 days of passes ≥ 10°. The values pass through the URL so the page stays shareable.

No JS? Fill the form by hand. The geolocation button needs JavaScript.